West Memphis, AR

10:11 PM CST on January 18, 2018 (GMT -0600)
West Memphis Municipal

Weather History for KAWM - October, 2011

Change the Weather History Date:

Thursday, October 27, 2011

  Actual Average Record
Temperature  
Mean Temperature 59 °F -  
Max Temperature 70 °F 71 °F 87 °F (1963)
Min Temperature 48 °F 48 °F 33 °F (1981)
Degree Days  
Heating Degree Days 6    
Growing Degree Days 9 (Base 50)    
Moisture  
Dew Point 49 °F    
Average Humidity 83    
Maximum Humidity 94    
Minimum Humidity 61    
Precipitation  
Precipitation 0.01 in - - ()
Sea Level Pressure  
Sea Level Pressure 29.97 in    
Wind  
Wind Speed 11 mph (NNE)    
Max Wind Speed 17 mph    
Max Gust Speed 28 mph    
Visibility 10 miles    
Events Rain    
Averages and records for this station are not official NWS values.
T = Trace of Precipitation, MM = Missing Value Source: NWS Daily Summary

Daily Weather History Graph

Daily Weather History Graph

Search for Another Location

Airport or City:

Trip Planner

Search our weather history database for the weather conditions in past years. The results will help you decide how hot, cold, wet, or windy it might be!

Date:

Astronomy

Oct. 27, 2011 Rise Set
Actual Time 7:17 AM CDT 6:11 PM CDT
Civil Twilight 6:51 AM CDT 6:37 PM CDT
Nautical Twilight 6:21 AM CDT 7:07 PM CDT
Astronomical Twilight 5:52 AM CDT 7:37 PM CDT
Moon 8:15 AM CDT (10/27) 6:46 PM CDT (10/27)
Length of Visible Light 11h 46m
Length of Day
10h 54m
New Moon, 1% of the Moon is Illuminated
Oct 27
New Moon
Nov 2
First Quarter
Nov 10
Full
Nov 18
Last Quarter
Nov 25
New

Hourly Weather History & Observations

Time (CDT) Temp. Dew Point Humidity Pressure Visibility Wind Dir Wind Speed Gust Speed Precip Events Conditions
12:53 AM 70.0 °F 55.9 °F 61% 29.83 in 10.0 mi SSW 10.4 mph - N/A   Overcast
1:53 AM 69.1 °F 59.0 °F 70% 29.84 in 10.0 mi WSW 3.5 mph - N/A   Overcast
2:21 AM 59.0 °F 55.4 °F 88% 29.86 in 7.0 mi North 9.2 mph - N/A   Overcast
2:30 AM 59.0 °F 55.4 °F 88% 29.87 in 7.0 mi North 9.2 mph 18.4 mph N/A   Mostly Cloudy
2:39 AM 57.2 °F 53.6 °F 88% 29.87 in 8.0 mi North 9.2 mph - N/A   Mostly Cloudy
3:53 AM 55.9 °F 52.0 °F 87% 29.87 in 10.0 mi North 8.1 mph - N/A   Overcast
4:53 AM 55.0 °F 52.0 °F 89% 29.87 in 10.0 mi North 10.4 mph - N/A   Overcast
5:00 AM 55.4 °F 51.8 °F 88% 29.88 in 10.0 mi North 9.2 mph - N/A   Overcast
5:39 AM 55.4 °F 51.8 °F 88% 29.90 in 10.0 mi North 17.3 mph 21.9 mph N/A   Overcast
5:53 AM 55.0 °F 51.1 °F 86% 29.90 in 10.0 mi North 15.0 mph 18.4 mph N/A   Overcast
6:13 AM 53.6 °F 51.8 °F 94% 29.91 in 10.0 mi North 13.8 mph - N/A   Overcast
6:32 AM 53.6 °F 50.0 °F 88% 29.92 in 10.0 mi North 13.8 mph 19.6 mph N/A   Overcast
6:49 AM 53.6 °F 48.2 °F 82% 29.92 in 10.0 mi NNE 16.1 mph - N/A   Overcast
6:53 AM 54.0 °F 50.0 °F 86% 29.91 in 10.0 mi NNE 10.4 mph 19.6 mph N/A   Overcast
7:02 AM 53.6 °F 50.0 °F 88% 29.93 in 10.0 mi NNE 11.5 mph 20.7 mph N/A   Overcast
7:53 AM 53.1 °F 48.0 °F 83% 29.95 in 10.0 mi NNE 15.0 mph 27.6 mph N/A   Overcast
8:30 AM 51.8 °F 48.2 °F 88% 29.97 in 10.0 mi North 15.0 mph - N/A   Overcast
8:53 AM 52.0 °F 46.9 °F 83% 29.98 in 10.0 mi NNE 12.7 mph 25.3 mph N/A   Overcast
9:12 AM 51.8 °F 46.4 °F 82% 29.98 in 10.0 mi NNE 17.3 mph 25.3 mph N/A   Overcast
9:44 AM 51.8 °F 46.4 °F 82% 29.99 in 10.0 mi North 12.7 mph 20.7 mph N/A   Overcast
9:53 AM 52.0 °F 46.9 °F 83% 29.99 in 10.0 mi North 15.0 mph 25.3 mph N/A   Overcast
10:53 AM 52.0 °F 46.0 °F 80% 30.02 in 10.0 mi North 13.8 mph 23.0 mph N/A   Overcast
11:53 AM 52.0 °F 46.0 °F 80% 30.03 in 10.0 mi NNE 16.1 mph 21.9 mph N/A   Overcast
12:42 PM 51.8 °F 44.6 °F 76% 30.02 in 10.0 mi NNE 16.1 mph 26.5 mph N/A   Overcast
12:53 PM 52.0 °F 46.0 °F 80% 30.01 in 9.0 mi NNE 13.8 mph 20.7 mph N/A   Overcast
1:02 PM 51.8 °F 46.4 °F 82% 30.02 in 9.0 mi NNE 13.8 mph 21.9 mph N/A   Overcast
1:53 PM 53.1 °F 45.0 °F 74% 30.01 in 10.0 mi NNE 15.0 mph 24.2 mph N/A   Overcast
2:53 PM 53.1 °F 45.0 °F 74% 30.01 in 10.0 mi NNE 10.4 mph - N/A   Overcast
3:53 PM 53.1 °F 46.0 °F 77% 30.00 in 10.0 mi NNE 15.0 mph - N/A   Overcast
4:53 PM 54.0 °F 46.0 °F 75% 30.03 in 10.0 mi North 10.4 mph - N/A   Overcast
5:53 PM 53.1 °F 45.0 °F 74% 30.03 in 10.0 mi NNE 13.8 mph - N/A   Overcast
7:53 PM 50.0 °F 46.9 °F 89% 30.05 in 10.0 mi NE 8.1 mph - 0.00 in   Overcast
8:53 PM 50.0 °F 46.9 °F 89% 30.08 in 10.0 mi NNE 8.1 mph - 0.01 in   Overcast
9:12 PM 50.0 °F 48.2 °F 94% 30.08 in 9.0 mi NNE 8.1 mph - N/A   Overcast
9:21 PM 50.0 °F 46.4 °F 87% 30.07 in 9.0 mi NNE 9.2 mph - N/A   Overcast
9:32 PM 50.0 °F 46.4 °F 87% 30.08 in 10.0 mi NNE 9.2 mph - N/A   Overcast
9:53 PM 50.0 °F 46.9 °F 89% 30.07 in 10.0 mi NNE 8.1 mph - N/A   Overcast
10:53 PM 48.9 °F 46.0 °F 90% 30.05 in 10.0 mi NE 10.4 mph 20.7 mph 0.00 in Rain Light Rain
11:53 PM 48.9 °F 45.0 °F 86% 30.06 in 10.0 mi NE 9.2 mph - 0.00 in   Overcast